Location: *
(58.4167°N, 22.5000°E)
Time: 09:48:53
(UTC+00:00)

Okean 1-7 Rocket - Pass Details

Date: 22 September 2019
Orbit: 617 x 649 km, 82.5° (Epoch: 23 October)

Event Time Altitude Azimuth Distance (km) Brightness Sun altitude
Rises 17:43:25 0° 346° (NNW) 2,919 7.5 -10.2°
Reaches altitude 10° 17:45:39 10° 345° (NNW) 2,011 6.7 -10.5°
Maximum altitude 17:50:06 76° 260° (W) 654 3.8 -11.0°
Drops below altitude 10° 17:54:34 10° 175° (S) 2,015 5.9 -11.6°
Sets 17:56:48 0° 174° (S) 2,924 6.8 -11.9°
